Location: Unspecified
(17.6330°N, 0.0000°E)
Time: 10:25:46
(UTC+00:00)

Courier 1B Rocket - Pass Details

Date: 01 July 2019
Orbit: 920 x 1202 km, 28.2° (Epoch: 19 July)

Event Time Altitude Azimuth Distance (km) Brightness Sun altitude
Rises 19:24:20 0° 200° (SSW) 3,944 8.1 -10.5°
Reaches altitude 10° 19:28:47 10° 176° (S) 3,041 7.3 -11.4°
Maximum altitude 19:32:23 14° 147° (SSE) 2,787 6.8 -12.2°
Enters shadow 19:33:23 14° 138° (SE) 2,819 6.8 -12.4°
